TimeCDT,TemperatureF,Dew PointF,Humidity,Sea Level PressureIn,VisibilityMPH,Wind Direction,Wind SpeedMPH,Gust SpeedMPH,PrecipitationIn,Events,Conditions,WindDirDegrees,DateUTC
1:53 AM,63.0,53.1,70,29.78,10.0,East,12.7,21.9,N/A,,Clear,90,2012-06-02 06:53:00
2:53 AM,57.0,51.1,81,29.80,10.0,East,10.4,-,N/A,,Clear,80,2012-06-02 07:53:00
3:53 AM,55.9,50.0,80,29.83,10.0,East,8.1,-,N/A,,Clear,90,2012-06-02 08:53:00
4:53 AM,55.9,50.0,80,29.81,10.0,East,5.8,-,N/A,,Clear,100,2012-06-02 09:53:00
5:53 AM,55.9,50.0,80,29.81,10.0,East,3.5,-,N/A,,Clear,90,2012-06-02 10:53:00
6:44 AM,53.6,51.8,94,29.96,10.0,NNE,8.1,-,N/A,,Partly Cloudy,30,2012-06-02 11:44:00
6:53 AM,54.0,52.0,93,29.84,10.0,NNE,9.2,-,N/A,,Scattered Clouds,30,2012-06-02 11:53:00
6:59 AM,53.6,51.8,94,29.96,9.0,NE,10.4,-,N/A,,Mostly Cloudy,40,2012-06-02 11:59:00
7:53 AM,55.0,53.1,93,29.86,8.0,Calm,Calm,-,N/A,,Overcast,0,2012-06-02 12:53:00
8:15 AM,57.2,53.6,88,29.99,10.0,SW,3.5,-,N/A,,Mostly Cloudy,230,2012-06-02 13:15:00
8:34 AM,59.0,53.6,82,29.99,10.0,WSW,5.8,-,N/A,,Partly Cloudy,240,2012-06-02 13:34:00
8:53 AM,60.1,53.1,78,29.88,10.0,WSW,3.5,-,N/A,,Clear,240,2012-06-02 13:53:00
9:53 AM,69.1,54.0,58,29.86,9.0,West,6.9,-,N/A,,Clear,260,2012-06-02 14:53:00
10:53 AM,75.9,57.0,52,29.83,10.0,Calm,Calm,-,N/A,,Clear,0,2012-06-02 15:53:00
11:00 AM,75.2,57.2,53,29.96,8.0,Variable,3.5,-,N/A,,Partly Cloudy,0,2012-06-02 16:00:00
11:53 AM,81.0,55.9,42,29.82,10.0,SE,6.9,-,N/A,,Clear,140,2012-06-02 16:53:00
12:53 PM,86.0,55.9,36,29.79,10.0,SE,12.7,19.6,N/A,,Clear,140,2012-06-02 17:53:00
1:53 PM,89.1,54.0,30,29.76,10.0,South,13.8,19.6,N/A,,Clear,190,2012-06-02 18:53:00
2:53 PM,90.0,53.1,28,29.75,10.0,South,11.5,17.3,N/A,,Clear,170,2012-06-02 19:53:00
3:53 PM,93.0,51.1,24,29.71,10.0,South,12.7,23.0,N/A,,Clear,190,2012-06-02 20:53:00
4:53 PM,91.0,51.1,25,29.69,10.0,South,17.3,23.0,N/A,,Clear,170,2012-06-02 21:53:00
5:53 PM,91.0,52.0,26,29.65,10.0,South,13.8,20.7,N/A,,Clear,170,2012-06-02 22:53:00
6:53 PM,91.0,50.0,24,29.64,10.0,SSE,15.0,-,N/A,,Partly Cloudy,160,2012-06-02 23:53:00
7:09 PM,89.6,50.0,26,29.77,10.0,South,13.8,20.7,N/A,Thunderstorm,Partly Cloudy,170,2012-06-03 00:09:00
7:53 PM,84.0,55.9,38,29.66,8.0,North,10.4,-,0.00,Rain-Thunderstorm,Light Thunderstorms and Rain,360,2012-06-03 00:53:00
8:08 PM,75.2,60.8,61,29.82,2.5,NNW,18.4,26.5,0.05,Rain-Thunderstorm,Heavy Thunderstorms and Rain,330,2012-06-03 01:08:00
8:15 PM,69.8,60.8,73,29.83,4.0,WNW,17.3,-,0.14,Rain-Thunderstorm,Heavy Thunderstorms and Rain,300,2012-06-03 01:15:00
8:26 PM,69.8,59.0,68,29.85,3.0,WSW,10.4,28.8,0.33,Rain-Thunderstorm,Heavy Thunderstorms and Rain,250,2012-06-03 01:26:00
8:53 PM,72.0,61.0,68,29.72,10.0,SSE,3.5,-,0.47,Rain-Thunderstorm,Light Rain,150,2012-06-03 01:53:00
9:45 PM,66.2,57.2,73,29.97,2.5,WSW,11.5,24.2,0.12,Rain-Thunderstorm,Heavy Thunderstorms and Rain,240,2012-06-03 02:45:00
9:53 PM,64.9,57.9,78,29.86,2.5,SSW,18.4,24.2,0.36,Rain-Thunderstorm,Thunderstorms and Rain,200,2012-06-03 02:53:00
10:00 PM,64.4,57.2,77,29.96,9.0,SSE,10.4,24.2,0.05,Rain-Thunderstorm,Thunderstorms and Rain,160,2012-06-03 03:00:00
10:36 PM,69.8,53.6,56,29.89,10.0,SE,23.0,31.1,0.06,,Partly Cloudy,140,2012-06-03 03:36:00
10:53 PM,66.9,57.0,70,29.74,10.0,SSE,19.6,27.6,0.06,,Clear,150,2012-06-03 03:53:00
11:53 PM,68.0,57.0,68,29.70,10.0,ESE,13.8,-,N/A,,Clear,120,2012-06-03 04:53:00